MSR069A HELX-HECA

Flight info

Callsign MSR069A
Flight time 0h 52m
Altitude 24000
Route LXR A727 CVO
Aircraft B738/M-SDE2E3FGHIRWXY/LB1

Departure

Time 2026-04-29 12:35
Airport Luxor International Airport (HELX)

Arrival

Time 2026-04-29 13:27
Airport Cairo International Airport (HECA)
Time Latitude Longitude Altitude Speed Heading
2026-04-29 12:08 25.67478 32.70196 287 ft 0 kts 294°
2026-04-29 12:09 25.67467 32.70225 292 ft 0 kts 295°
2026-04-29 12:25 25.67448 32.70277 289 ft 4 kts 286°
2026-04-29 12:26 25.67442 32.70306 292 ft 4 kts 276°
2026-04-29 12:26 25.67443 32.70334 293 ft 4 kts 245°
2026-04-29 12:26 25.67452 32.70348 287 ft 1 kts 209°
2026-04-29 12:26 25.67454 32.70349 289 ft 0 kts 209°
2026-04-29 12:31 25.67450 32.70347 287 ft 2 kts 209°
2026-04-29 12:31 25.67416 32.70326 290 ft 8 kts 208°
2026-04-29 12:31 25.67355 32.70292 290 ft 11 kts 206°
2026-04-29 12:31 25.67285 32.70255 288 ft 11 kts 204°
2026-04-29 12:32 25.67216 32.70219 292 ft 11 kts 207°
2026-04-29 12:32 25.67152 32.70182 292 ft 10 kts 208°
2026-04-29 12:32 25.67087 32.70180 290 ft 10 kts 135°
2026-04-29 12:32 25.67053 32.70250 291 ft 11 kts 117°
2026-04-29 12:33 25.67011 32.70344 292 ft 16 kts 116°
2026-04-29 12:33 25.66924 32.70385 290 ft 16 kts 205°
2026-04-29 12:33 25.66825 32.70338 291 ft 15 kts 202°
2026-04-29 12:33 25.66729 32.70295 294 ft 15 kts 201°
2026-04-29 12:34 25.66638 32.70253 293 ft 14 kts 203°
2026-04-29 12:34 25.66550 32.70213 295 ft 13 kts 194°
2026-04-29 12:34 25.66493 32.70275 294 ft 13 kts 112°
2026-04-29 12:34 25.66485 32.70362 295 ft 13 kts 28°
2026-04-29 12:35 25.66630 32.70428 293 ft 56 kts 22°
2026-04-29 12:35 25.66961 32.70578 287 ft 92 kts 21°
2026-04-29 12:35 25.68028 32.71062 318 ft 167 kts 22°
2026-04-29 12:35 25.69137 32.71603 1283 ft 170 kts 16°
2026-04-29 12:36 25.70176 32.72076 2630 ft 166 kts 17°
2026-04-29 12:36 25.71411 32.72595 2995 ft 214 kts 16°
2026-04-29 12:36 25.72943 32.73077 3533 ft 231 kts
2026-04-29 12:36 25.74403 32.72859 4969 ft 198 kts 342°
2026-04-29 12:37 25.75643 32.72442 6209 ft 177 kts 342°
2026-04-29 12:37 25.76875 32.72017 6407 ft 214 kts 341°
2026-04-29 12:37 25.78480 32.71464 6117 ft 256 kts 343°
2026-04-29 12:37 25.80111 32.70949 7120 ft 229 kts 343°
2026-04-29 12:38 25.81554 32.70513 8525 ft 201 kts 344°
2026-04-29 12:38 25.82928 32.70104 9206 ft 211 kts 344°
2026-04-29 12:38 25.84380 32.69676 9787 ft 220 kts 344°
2026-04-29 12:38 25.85865 32.69245 10449 ft 222 kts 344°
2026-04-29 12:39 25.87367 32.68813 11111 ft 224 kts 343°
2026-04-29 12:39 25.88897 32.68375 11662 ft 233 kts 343°
2026-04-29 12:39 25.90530 32.67908 11955 ft 255 kts 343°
2026-04-29 12:39 25.92335 32.67394 12155 ft 280 kts 343°
2026-04-29 12:40 25.94312 32.66833 12336 ft 305 kts 343°
2026-04-29 12:40 25.96418 32.66238 12520 ft 328 kts 343°
2026-04-29 12:40 25.98702 32.65596 12717 ft 347 kts 344°
2026-04-29 12:40 26.01076 32.64932 13277 ft 355 kts 343°
2026-04-29 12:41 26.03494 32.64256 13902 ft 360 kts 343°
2026-04-29 12:41 26.05923 32.63579 14670 ft 359 kts 343°
2026-04-29 12:41 26.08342 32.62905 15406 ft 358 kts 342°
2026-04-29 12:41 26.09944 32.62458 15871 ft 359 kts 342°
2026-04-29 12:42 26.12370 32.61780 16536 ft 360 kts 342°
2026-04-29 12:42 26.14811 32.61097 17200 ft 361 kts 341°
2026-04-29 12:42 26.17254 32.60413 17858 ft 362 kts 341°
2026-04-29 12:42 26.19704 32.59726 18450 ft 364 kts 341°
2026-04-29 12:43 26.22170 32.59034 18935 ft 367 kts 341°
2026-04-29 12:43 26.24660 32.58334 19411 ft 370 kts 341°
2026-04-29 12:43 26.27170 32.57630 19900 ft 373 kts 341°
2026-04-29 12:43 26.29694 32.56921 20385 ft 376 kts 341°
2026-04-29 12:44 26.32241 32.56205 20901 ft 378 kts 341°
2026-04-29 12:44 26.34798 32.55488 21397 ft 381 kts 341°
2026-04-29 12:44 26.37342 32.54772 21844 ft 384 kts 341°
2026-04-29 12:44 26.39939 32.54043 22339 ft 386 kts 340°
2026-04-29 12:45 26.42551 32.53308 22788 ft 389 kts 340°
2026-04-29 12:45 26.45184 32.52566 23219 ft 392 kts 340°
2026-04-29 12:45 26.47841 32.51817 23641 ft 395 kts 340°
2026-04-29 12:45 26.50516 32.51063 24059 ft 396 kts 340°
2026-04-29 12:46 26.53183 32.50312 24596 ft 394 kts 340°
2026-04-29 12:46 26.55824 32.49570 25207 ft 390 kts 340°
2026-04-29 12:46 26.58442 32.48834 25803 ft 387 kts 340°
2026-04-29 12:46 26.61055 32.48098 26335 ft 385 kts 340°
2026-04-29 12:47 26.63653 32.47364 26876 ft 384 kts 339°
2026-04-29 12:47 26.66232 32.46635 27424 ft 382 kts 339°
2026-04-29 12:47 26.68811 32.45905 27910 ft 382 kts 339°
2026-04-29 12:47 26.71386 32.45176 27928 ft 381 kts 339°
2026-04-29 12:48 26.73954 32.44449 27968 ft 380 kts 339°
2026-04-29 12:48 26.76494 32.43729 27963 ft 381 kts 339°
2026-04-29 12:48 26.79068 32.42999 27970 ft 382 kts 339°
2026-04-29 12:48 26.81640 32.42270 27967 ft 382 kts 339°
2026-04-29 12:49 26.84215 32.41540 27970 ft 382 kts 339°
2026-04-29 12:49 26.86797 32.40807 27988 ft 382 kts 339°
2026-04-29 12:49 26.89372 32.40077 27978 ft 382 kts 339°
2026-04-29 12:49 26.91948 32.39346 27977 ft 381 kts 339°
2026-04-29 12:50 26.94521 32.38615 27967 ft 380 kts 339°
2026-04-29 12:50 26.97090 32.37886 27978 ft 380 kts 339°
2026-04-29 12:50 26.99648 32.37158 27967 ft 379 kts 339°
2026-04-29 12:50 27.02202 32.36432 27965 ft 379 kts 339°
2026-04-29 12:51 27.04751 32.35706 27984 ft 378 kts 339°
2026-04-29 12:51 27.07300 32.34980 27966 ft 378 kts 339°
2026-04-29 12:51 27.09849 32.34254 27986 ft 378 kts 339°
2026-04-29 12:51 27.12362 32.33537 27972 ft 378 kts 339°
2026-04-29 12:52 27.14912 32.32810 27996 ft 377 kts 339°
2026-04-29 12:52 27.17456 32.32085 27984 ft 377 kts 339°
2026-04-29 12:52 27.19996 32.31360 27982 ft 377 kts 339°
2026-04-29 12:52 27.22540 32.30633 27974 ft 377 kts 339°
2026-04-29 12:53 27.25083 32.29907 27971 ft 376 kts 339°
2026-04-29 12:53 27.27621 32.29181 27980 ft 376 kts 339°
2026-04-29 12:53 27.30153 32.28457 27984 ft 375 kts 339°
2026-04-29 12:53 27.32673 32.27696 27978 ft 375 kts 338°
2026-04-29 12:54 27.35186 32.26903 27981 ft 374 kts 338°
2026-04-29 12:54 27.37655 32.26112 27981 ft 374 kts 338°
2026-04-29 12:54 27.40157 32.25311 27982 ft 374 kts 338°
2026-04-29 12:55 27.45172 32.23711 27987 ft 375 kts 338°
2026-04-29 12:55 27.47682 32.22913 27994 ft 376 kts 338°
2026-04-29 12:55 27.50234 32.22100 27997 ft 385 kts 338°
2026-04-29 12:55 27.52839 32.21269 27994 ft 394 kts 338°
2026-04-29 12:56 27.55502 32.20422 27996 ft 402 kts 338°
2026-04-29 12:56 27.58223 32.19557 27990 ft 409 kts 338°
2026-04-29 12:56 27.60977 32.18683 27984 ft 413 kts 339°
2026-04-29 12:56 27.63713 32.17818 27981 ft 413 kts 339°
2026-04-29 12:57 27.66449 32.16952 27980 ft 412 kts 339°
2026-04-29 12:57 27.69211 32.16076 27985 ft 412 kts 339°
2026-04-29 12:57 27.71968 32.15201 27997 ft 411 kts 338°
2026-04-29 12:57 27.74720 32.14326 27988 ft 410 kts 338°
2026-04-29 12:58 27.77459 32.13455 27985 ft 408 kts 338°
2026-04-29 12:58 27.80185 32.12586 27981 ft 407 kts 338°
2026-04-29 12:58 27.82908 32.11719 27985 ft 405 kts 338°
2026-04-29 12:58 27.85620 32.10853 27986 ft 405 kts 338°
2026-04-29 12:59 27.88332 32.09987 27992 ft 404 kts 338°
2026-04-29 12:59 27.91043 32.09121 27993 ft 404 kts 338°
2026-04-29 12:59 27.93746 32.08257 27990 ft 404 kts 338°
2026-04-29 12:59 27.96454 32.07391 27991 ft 404 kts 338°
2026-04-29 13:00 27.99163 32.06524 28003 ft 405 kts 338°
2026-04-29 13:00 28.01878 32.05656 28000 ft 405 kts 338°
2026-04-29 13:00 28.04598 32.04788 27996 ft 406 kts 338°
2026-04-29 13:00 28.07282 32.03944 27995 ft 406 kts 339°
2026-04-29 13:01 28.10019 32.03089 27999 ft 407 kts 339°
2026-04-29 13:01 28.12746 32.02239 27995 ft 407 kts 339°
2026-04-29 13:01 28.15480 32.01386 27992 ft 407 kts 339°
2026-04-29 13:01 28.18214 32.00532 27997 ft 408 kts 339°
2026-04-29 13:02 28.20948 31.99676 27994 ft 408 kts 339°
2026-04-29 13:02 28.23683 31.98819 27994 ft 408 kts 339°
2026-04-29 13:02 28.26419 31.97961 28008 ft 408 kts 338°
2026-04-29 13:02 28.29155 31.97102 27998 ft 408 kts 338°
2026-04-29 13:03 28.31892 31.96242 27993 ft 408 kts 338°
2026-04-29 13:03 28.34620 31.95384 27990 ft 407 kts 338°
2026-04-29 13:03 28.37348 31.94527 27986 ft 406 kts 338°
2026-04-29 13:03 28.40078 31.93668 27993 ft 406 kts 338°
2026-04-29 13:04 28.42796 31.92812 27992 ft 406 kts 338°
2026-04-29 13:04 28.45522 31.91953 27988 ft 405 kts 338°
2026-04-29 13:04 28.48235 31.91098 27987 ft 401 kts 338°
2026-04-29 13:04 28.50862 31.90277 27973 ft 383 kts 338°
2026-04-29 13:05 28.53383 31.89489 28000 ft 371 kts 338°
2026-04-29 13:05 28.55853 31.88710 28000 ft 368 kts 338°
2026-04-29 13:05 28.58320 31.87926 28001 ft 368 kts 338°
2026-04-29 13:06 28.63238 31.86363 27995 ft 369 kts 338°
2026-04-29 13:06 28.65718 31.85577 27991 ft 370 kts 338°
2026-04-29 13:06 28.68189 31.84795 27977 ft 364 kts 338°
2026-04-29 13:06 28.70585 31.84042 27920 ft 352 kts 338°
2026-04-29 13:07 28.72927 31.83303 27623 ft 345 kts 337°
2026-04-29 13:07 28.75234 31.82572 27201 ft 343 kts 337°
2026-04-29 13:07 28.77531 31.81841 26696 ft 343 kts 338°
2026-04-29 13:07 28.79836 31.81106 26195 ft 343 kts 338°
2026-04-29 13:08 28.82133 31.80375 25759 ft 342 kts 338°
2026-04-29 13:08 28.84418 31.79649 25327 ft 341 kts 338°
2026-04-29 13:08 28.86709 31.78921 24836 ft 341 kts 338°
2026-04-29 13:08 28.88965 31.78203 24399 ft 341 kts 338°
2026-04-29 13:09 28.91242 31.77479 23981 ft 340 kts 338°
2026-04-29 13:09 28.93530 31.76751 23562 ft 340 kts 338°
2026-04-29 13:09 28.95804 31.76028 23090 ft 339 kts 338°
2026-04-29 13:09 28.98068 31.75308 22674 ft 336 kts 338°
2026-04-29 13:10 29.00315 31.74587 22258 ft 334 kts 338°
2026-04-29 13:10 29.02552 31.73862 21839 ft 332 kts 339°
2026-04-29 13:10 29.04766 31.73142 21424 ft 330 kts 339°
2026-04-29 13:10 29.06973 31.72424 21031 ft 329 kts 339°
2026-04-29 13:11 29.09166 31.71710 20641 ft 327 kts 339°
2026-04-29 13:11 29.11323 31.71007 20246 ft 326 kts 339°
2026-04-29 13:11 29.13508 31.70295 19757 ft 327 kts 339°
2026-04-29 13:11 29.15699 31.69580 19293 ft 328 kts 340°
2026-04-29 13:12 29.17894 31.68865 18843 ft 329 kts 340°
2026-04-29 13:12 29.20096 31.68147 18388 ft 328 kts 340°
2026-04-29 13:12 29.22283 31.67435 17872 ft 324 kts 340°
2026-04-29 13:12 29.24442 31.66732 17350 ft 321 kts 340°
2026-04-29 13:13 29.26585 31.66034 16838 ft 318 kts 340°
2026-04-29 13:13 29.28700 31.65344 16335 ft 315 kts 340°
2026-04-29 13:13 29.30795 31.64660 15913 ft 310 kts 341°
2026-04-29 13:13 29.32858 31.63986 15505 ft 307 kts 341°
2026-04-29 13:14 29.34910 31.63316 15095 ft 305 kts 341°
2026-04-29 13:14 29.36945 31.62650 14692 ft 304 kts 341°
2026-04-29 13:14 29.38979 31.61984 14296 ft 303 kts 341°
2026-04-29 13:14 29.40984 31.61327 13905 ft 302 kts 341°
2026-04-29 13:15 29.43002 31.60666 13476 ft 302 kts 341°
2026-04-29 13:15 29.45022 31.60005 13040 ft 302 kts 341°
2026-04-29 13:15 29.47040 31.59343 12607 ft 302 kts 341°
2026-04-29 13:15 29.49057 31.58682 12183 ft 301 kts 341°
2026-04-29 13:16 29.51073 31.58021 11729 ft 302 kts 341°
2026-04-29 13:16 29.53105 31.57353 11258 ft 304 kts 341°
2026-04-29 13:16 29.55130 31.56689 10840 ft 301 kts 342°
2026-04-29 13:16 29.57137 31.56031 10441 ft 298 kts 342°
2026-04-29 13:17 29.59119 31.55380 10029 ft 294 kts 342°
2026-04-29 13:17 29.61069 31.54740 9648 ft 289 kts 342°
2026-04-29 13:17 29.62991 31.54108 9347 ft 286 kts 342°
2026-04-29 13:17 29.64903 31.53479 9036 ft 284 kts 342°
2026-04-29 13:18 29.66771 31.52778 8706 ft 281 kts 331°
2026-04-29 13:18 29.68327 31.51470 8427 ft 276 kts 317°
2026-04-29 13:18 29.69715 31.49953 8072 ft 276 kts 315°
2026-04-29 13:18 29.71090 31.48395 7640 ft 277 kts 315°
2026-04-29 13:19 29.72431 31.46859 7232 ft 267 kts 315°
2026-04-29 13:19 29.73732 31.45359 6783 ft 261 kts 315°
2026-04-29 13:19 29.74997 31.43894 6351 ft 255 kts 315°
2026-04-29 13:19 29.76222 31.42469 6036 ft 247 kts 315°
2026-04-29 13:20 29.77416 31.41080 5768 ft 243 kts 315°
2026-04-29 13:20 29.78588 31.39714 5402 ft 244 kts 315°
2026-04-29 13:20 29.79785 31.38320 5036 ft 244 kts 315°
2026-04-29 13:20 29.80969 31.36936 4749 ft 242 kts 315°
2026-04-29 13:21 29.82150 31.35550 4458 ft 243 kts 315°
2026-04-29 13:21 29.83382 31.34205 4144 ft 245 kts 326°
2026-04-29 13:21 29.84938 31.33437 3859 ft 242 kts 342°
2026-04-29 13:21 29.86541 31.32931 3576 ft 235 kts 344°
2026-04-29 13:22 29.88111 31.32455 3181 ft 232 kts 344°
2026-04-29 13:22 29.89662 31.31987 2855 ft 228 kts 345°
2026-04-29 13:22 29.91203 31.31520 2532 ft 227 kts 344°
2026-04-29 13:22 29.92705 31.31065 2283 ft 215 kts 345°
2026-04-29 13:23 29.94157 31.30622 2279 ft 224 kts 345°
2026-04-29 13:23 29.95645 31.30188 2231 ft 216 kts 344°
2026-04-29 13:23 29.97079 31.29793 2230 ft 212 kts 346°
2026-04-29 13:23 29.98492 31.29376 2244 ft 206 kts 344°
2026-04-29 13:24 29.99855 31.28991 2202 ft 198 kts 345°
2026-04-29 13:24 30.01163 31.28807 2207 ft 186 kts
2026-04-29 13:24 30.02243 31.29609 2252 ft 190 kts 47°
2026-04-29 13:24 30.03136 31.30737 2167 ft 193 kts 43°
2026-04-29 13:25 30.04042 31.31908 1953 ft 197 kts 46°
2026-04-29 13:25 30.05784 31.34241 1449 ft 180 kts 45°
2026-04-29 13:25 30.06579 31.35302 1183 ft 166 kts 45°
2026-04-29 13:26 30.07292 31.36253 989 ft 153 kts 43°
2026-04-29 13:26 30.08019 31.37221 750 ft 166 kts 44°
2026-04-29 13:26 30.08755 31.38204 562 ft 163 kts 44°
2026-04-29 13:26 30.09478 31.39181 510 ft 162 kts 46°
2026-04-29 13:27 30.10226 31.40168 397 ft 162 kts 45°
2026-04-29 13:27 30.10960 31.41139 372 ft 158 kts 50°
2026-04-29 13:27 30.11526 31.41894 371 ft 91 kts 48°
2026-04-29 13:27 30.11771 31.42158 370 ft 36 kts 27°
2026-04-29 13:28 30.11938 31.42230 373 ft 20 kts 18°
2026-04-29 13:28 30.11976 31.42235 374 ft 0 kts 340°
2026-04-29 13:29 30.11977 31.42234 374 ft 0 kts 340°
2026-04-29 13:29 30.11991 31.42227 374 ft 7 kts 334°
2026-04-29 13:29 30.12016 31.42163 374 ft 13 kts 260°
2026-04-29 13:29 30.11948 31.42060 374 ft 18 kts 229°
2026-04-29 13:30 30.11864 31.41950 374 ft 18 kts 228°
2026-04-29 13:30 30.11786 31.41843 374 ft 17 kts 231°
2026-04-29 13:30 30.11708 31.41741 374 ft 17 kts 227°
2026-04-29 13:30 30.11628 31.41635 374 ft 19 kts 229°
2026-04-29 13:31 30.11538 31.41514 374 ft 20 kts 229°
2026-04-29 13:31 30.11441 31.41386 374 ft 23 kts 229°
2026-04-29 13:31 30.11348 31.41262 374 ft 19 kts 229°
2026-04-29 13:31 30.11263 31.41149 374 ft 18 kts 229°
2026-04-29 13:32 30.11181 31.41039 374 ft 18 kts 228°
2026-04-29 13:32 30.11101 31.40935 374 ft 17 kts 229°
2026-04-29 13:32 30.11025 31.40833 373 ft 16 kts 229°
2026-04-29 13:32 30.10972 31.40763 373 ft 19 kts 229°
2026-04-29 13:33 30.10871 31.40629 373 ft 22 kts 229°
2026-04-29 13:33 30.10774 31.40499 373 ft 21 kts 230°
2026-04-29 13:33 30.10683 31.40371 373 ft 20 kts 250°
2026-04-29 13:33 30.10656 31.40185 373 ft 20 kts 229°
2026-04-29 13:34 30.10596 31.40106 373 ft 19 kts 229°
2026-04-29 13:34 30.10509 31.39992 373 ft 19 kts 228°
2026-04-29 13:34 30.10518 31.39870 373 ft 18 kts 329°
2026-04-29 13:34 30.10636 31.39828 373 ft 17 kts 344°
2026-04-29 13:35 30.10749 31.39793 373 ft 17 kts 345°
2026-04-29 13:35 30.10824 31.39738 373 ft 10 kts 256°
2026-04-29 13:35 30.10807 31.39679 373 ft 0 kts 255°